Time,TemperatureF,DewpointF,PressureIn,WindDirection,WindDirectionDegrees,WindSpeedMPH,WindSpeedGustMPH,Humidity,HourlyPrecipIn,Conditions,Clouds,dailyrainin,SoftwareType,DateUTC
2013-11-05 00:13:00,33.0,18.0,30.60,SSE,163,5.0,11.0,54,0.00,,,0.00,,2013-11-05 05:13:00,
2013-11-05 00:23:00,33.0,19.0,30.59,SSE,158,6.0,12.0,55,0.00,,,0.00,,2013-11-05 05:23:00,
2013-11-05 00:43:00,33.0,19.0,30.58,SSW,200,9.0,15.0,55,0.00,,,0.00,,2013-11-05 05:43:00,
2013-11-05 00:54:00,33.0,18.0,30.59,South,170,7.0,18.0,54,0.00,,,0.00,,2013-11-05 05:54:00,
2013-11-05 01:13:00,33.0,19.0,30.59,SSE,160,7.0,17.0,55,0.00,,,0.00,,2013-11-05 06:13:00,
2013-11-05 01:22:00,33.0,19.0,30.58,SE,138,7.0,13.0,55,0.00,,,0.00,,2013-11-05 06:22:00,
2013-11-05 01:42:00,33.0,19.0,30.58,South,171,7.0,14.0,55,0.00,,,0.00,,2013-11-05 06:42:00,
2013-11-05 01:52:00,33.0,19.0,30.58,SSE,164,6.0,12.0,55,0.00,,,0.00,,2013-11-05 06:52:00,
2013-11-05 02:11:00,33.0,19.0,30.59,SSE,157,3.0,11.0,55,0.00,,,0.00,,2013-11-05 07:11:00,
2013-11-05 02:22:00,33.0,19.0,30.59,SSE,158,4.0,9.0,56,0.00,,,0.00,,2013-11-05 07:22:00,
2013-11-05 02:42:00,33.0,19.0,30.59,SSE,167,6.0,13.0,55,0.00,,,0.00,,2013-11-05 07:42:00,
2013-11-05 02:52:00,33.0,19.0,30.59,SSE,162,5.0,10.0,55,0.00,,,0.00,,2013-11-05 07:52:00,
2013-11-05 03:11:00,33.0,19.0,30.59,South,176,6.0,9.0,55,0.00,,,0.00,,2013-11-05 08:11:00,
2013-11-05 03:22:00,33.0,19.0,30.59,SSE,165,4.0,8.0,55,0.00,,,0.00,,2013-11-05 08:22:00,
2013-11-05 03:42:00,32.0,18.0,30.59,South,177,4.0,9.0,55,0.00,,,0.00,,2013-11-05 08:42:00,
2013-11-05 03:52:00,32.0,18.0,30.60,SSE,153,4.0,7.0,56,0.00,,,0.00,,2013-11-05 08:52:00,
2013-11-05 04:12:00,32.0,18.0,30.60,SSE,150,4.0,9.0,56,0.00,,,0.00,,2013-11-05 09:12:00,
2013-11-05 04:22:00,33.0,19.0,30.60,South,175,5.0,12.0,55,0.00,,,0.00,,2013-11-05 09:22:00,
2013-11-05 04:43:00,33.0,19.0,30.60,SSE,153,4.0,13.0,55,0.00,,,0.00,,2013-11-05 09:43:00,
2013-11-05 04:53:00,33.0,19.0,30.60,SSW,195,7.0,13.0,56,0.00,,,0.00,,2013-11-05 09:53:00,
2013-11-05 05:13:00,33.0,19.0,30.59,South,175,8.0,14.0,56,0.00,,,0.00,,2013-11-05 10:13:00,
2013-11-05 05:23:00,32.0,19.0,30.60,SSE,157,4.0,9.0,57,0.00,,,0.00,,2013-11-05 10:23:00,
2013-11-05 05:43:00,33.0,19.0,30.60,South,179,6.0,11.0,57,0.00,,,0.00,,2013-11-05 10:43:00,
2013-11-05 05:53:00,33.0,20.0,30.60,SE,138,3.0,11.0,58,0.00,,,0.00,,2013-11-05 10:53:00,
2013-11-05 06:13:00,33.0,20.0,30.61,South,172,4.0,8.0,58,0.00,,,0.00,,2013-11-05 11:13:00,
2013-11-05 06:22:00,32.0,19.0,30.61,SSW,193,3.0,6.0,59,0.00,,,0.00,,2013-11-05 11:22:00,
2013-11-05 06:42:00,32.0,19.0,30.60,South,184,4.0,7.0,59,0.00,,,0.00,,2013-11-05 11:42:00,
2013-11-05 06:52:00,32.0,19.0,30.60,SSE,161,5.0,8.0,59,0.00,,,0.00,,2013-11-05 11:52:00,
2013-11-05 07:22:00,32.0,19.0,30.61,SSE,155,5.0,11.0,59,0.00,,,0.00,,2013-11-05 12:22:00,
2013-11-05 07:42:00,32.0,19.0,30.62,SSE,168,4.0,9.0,59,0.00,,,0.00,,2013-11-05 12:42:00,
2013-11-05 07:52:00,32.0,19.0,30.61,SE,146,4.0,9.0,59,0.00,,,0.00,,2013-11-05 12:52:00,
2013-11-05 08:11:00,32.0,19.0,30.61,South,188,4.0,8.0,59,0.00,,,0.00,,2013-11-05 13:11:00,
2013-11-05 08:22:00,34.0,21.0,30.62,SSE,163,4.0,7.0,58,0.00,,,0.00,,2013-11-05 13:22:00,
2013-11-05 08:42:00,36.0,21.0,30.63,SSE,164,5.0,10.0,55,0.00,,,0.00,,2013-11-05 13:42:00,
2013-11-05 08:52:00,36.0,21.0,30.62,SSE,167,4.0,10.0,54,0.00,,,0.00,,2013-11-05 13:52:00,
2013-11-05 09:12:00,37.0,22.0,30.63,SSW,198,4.0,8.0,54,0.00,,,0.00,,2013-11-05 14:12:00,
2013-11-05 09:22:00,37.0,22.0,30.63,South,181,3.0,7.0,54,0.00,,,0.00,,2013-11-05 14:22:00,
2013-11-05 09:42:00,38.0,24.0,30.63,SE,140,2.0,8.0,56,0.00,,,0.00,,2013-11-05 14:42:00,
2013-11-05 09:52:00,40.0,24.0,30.63,South,171,5.0,12.0,53,0.00,,,0.00,,2013-11-05 14:52:00,
2013-11-05 10:11:00,40.0,26.0,30.62,SSE,165,4.0,10.0,58,0.00,,,0.00,,2013-11-05 15:11:00,
2013-11-05 10:22:00,41.0,28.0,30.62,South,169,5.0,10.0,59,0.00,,,0.00,,2013-11-05 15:22:00,
2013-11-05 10:43:00,42.0,28.0,30.61,South,173,6.0,13.0,57,0.00,,,0.00,,2013-11-05 15:43:00,
2013-11-05 10:53:00,43.0,28.0,30.61,SSE,162,7.0,13.0,56,0.00,,,0.00,,2013-11-05 15:53:00,
2013-11-05 11:13:00,43.0,29.0,30.62,SSE,166,1.0,11.0,58,0.00,,,0.00,,2013-11-05 16:13:00,
2013-11-05 11:23:00,44.0,29.0,30.61,SW,219,5.0,12.0,56,0.00,,,0.00,,2013-11-05 16:23:00,
2013-11-05 11:43:00,44.0,28.0,30.59,SSE,167,5.0,12.0,53,0.00,,,0.00,,2013-11-05 16:43:00,
2013-11-05 11:52:00,45.0,29.0,30.59,SE,135,4.0,9.0,53,0.00,,,0.00,,2013-11-05 16:52:00,
2013-11-05 12:12:00,44.0,29.0,30.58,SSE,161,5.0,12.0,55,0.00,,,0.00,,2013-11-05 17:12:00,
2013-11-05 12:22:00,44.0,29.0,30.58,SSE,156,3.0,14.0,55,0.00,,,0.00,,2013-11-05 17:22:00,
2013-11-05 12:42:00,44.0,29.0,30.57,SSE,162,4.0,8.0,55,0.00,,,0.00,,2013-11-05 17:42:00,
2013-11-05 12:52:00,44.0,29.0,30.57,South,175,3.0,12.0,55,0.00,,,0.00,,2013-11-05 17:52:00,
2013-11-05 13:12:00,45.0,29.0,30.57,SSE,153,3.0,9.0,54,0.00,,,0.00,,2013-11-05 18:12:00,
2013-11-05 13:22:00,45.0,30.0,30.55,South,186,5.0,11.0,55,0.00,,,0.00,,2013-11-05 18:22:00,
2013-11-05 13:42:00,45.0,30.0,30.55,SSE,156,4.0,9.0,55,0.00,,,0.00,,2013-11-05 18:42:00,
2013-11-05 13:52:00,44.0,29.0,30.54,South,191,5.0,11.0,56,0.00,,,0.00,,2013-11-05 18:52:00,
2013-11-05 14:11:00,45.0,31.0,30.54,SSE,161,2.0,11.0,57,0.00,,,0.00,,2013-11-05 19:11:00,
2013-11-05 14:22:00,45.0,31.0,30.55,South,191,3.0,12.0,58,0.00,,,0.00,,2013-11-05 19:22:00,
2013-11-05 14:42:00,45.0,32.0,30.53,SE,139,3.0,13.0,59,0.00,,,0.00,,2013-11-05 19:42:00,
2013-11-05 14:52:00,45.0,32.0,30.53,SE,134,1.0,11.0,61,0.00,,,0.00,,2013-11-05 19:52:00,
2013-11-05 15:12:00,45.0,32.0,30.52,South,174,4.0,10.0,61,0.00,,,0.00,,2013-11-05 20:12:00,
2013-11-05 15:22:00,45.0,33.0,30.53,SSE,168,3.0,9.0,62,0.00,,,0.00,,2013-11-05 20:22:00,
2013-11-05 15:42:00,45.0,32.0,30.53,SE,129,4.0,10.0,61,0.00,,,0.00,,2013-11-05 20:42:00,
2013-11-05 15:52:00,45.0,32.0,30.52,WSW,253,5.0,11.0,60,0.00,,,0.00,,2013-11-05 20:52:00,
2013-11-05 16:12:00,46.0,33.0,30.50,SSE,159,4.0,9.0,61,0.00,,,0.00,,2013-11-05 21:12:00,
2013-11-05 16:22:00,46.0,33.0,30.50,SSE,164,3.0,8.0,60,0.00,,,0.00,,2013-11-05 21:22:00,
2013-11-05 16:44:00,46.0,33.0,30.50,SSW,204,4.0,8.0,60,0.00,,,0.00,,2013-11-05 21:44:00,
2013-11-05 16:54:00,45.0,32.0,30.50,SSE,163,3.0,7.0,61,0.00,,,0.00,,2013-11-05 21:54:00,
2013-11-05 17:13:00,45.0,32.0,30.52,South,172,2.0,7.0,61,0.00,,,0.00,,2013-11-05 22:13:00,
2013-11-05 17:23:00,45.0,33.0,30.51,SE,138,3.0,6.0,62,0.00,,,0.00,,2013-11-05 22:23:00,
2013-11-05 17:43:00,45.0,33.0,30.52,SSE,148,3.0,7.0,63,0.00,,,0.00,,2013-11-05 22:43:00,
2013-11-05 17:53:00,45.0,33.0,30.52,SE,141,4.0,11.0,63,0.00,,,0.00,,2013-11-05 22:53:00,
2013-11-05 18:12:00,45.0,33.0,30.51,SSW,202,3.0,8.0,63,0.00,,,0.00,,2013-11-05 23:12:00,
2013-11-05 18:22:00,45.0,33.0,30.52,SSE,158,4.0,11.0,63,0.00,,,0.00,,2013-11-05 23:22:00,
2013-11-05 18:42:00,45.0,34.0,30.51,South,174,4.0,9.0,65,0.00,,,0.00,,2013-11-05 23:42:00,
2013-11-05 18:53:00,44.0,34.0,30.52,SSE,167,5.0,9.0,67,0.00,,,0.00,,2013-11-05 23:53:00,
2013-11-05 19:12:00,44.0,33.0,30.51,SSE,165,5.0,12.0,66,0.00,,,0.00,,2013-11-06 00:12:00,
2013-11-05 19:22:00,44.0,33.0,30.51,SSE,158,6.0,12.0,66,0.00,,,0.00,,2013-11-06 00:22:00,
2013-11-05 19:42:00,44.0,34.0,30.50,SSE,167,7.0,11.0,67,0.00,,,0.00,,2013-11-06 00:42:00,
2013-11-05 19:52:00,44.0,34.0,30.49,SSE,165,5.0,10.0,68,0.00,,,0.00,,2013-11-06 00:52:00,
2013-11-05 20:11:00,44.0,34.0,30.48,South,173,7.0,13.0,68,0.00,,,0.00,,2013-11-06 01:11:00,
2013-11-05 20:22:00,44.0,35.0,30.49,SSE,158,8.0,14.0,71,0.00,,,0.00,,2013-11-06 01:22:00,
2013-11-05 20:42:00,44.0,36.0,30.50,South,172,2.0,9.0,72,0.00,,,0.00,,2013-11-06 01:42:00,
2013-11-05 20:52:00,43.0,35.0,30.50,SSE,165,3.0,7.0,73,0.00,,,0.00,,2013-11-06 01:52:00,
2013-11-05 21:12:00,43.0,35.0,30.49,SSE,155,2.0,7.0,74,0.00,,,0.00,,2013-11-06 02:12:00,
2013-11-05 21:23:00,43.0,35.0,30.46,SSW,200,6.0,10.0,74,0.00,,,0.00,,2013-11-06 02:23:00,
2013-11-05 21:42:00,43.0,36.0,30.46,SSE,162,5.0,14.0,75,0.00,,,0.00,,2013-11-06 02:42:00,
2013-11-05 21:52:00,43.0,36.0,30.47,SSE,149,2.0,6.0,76,0.00,,,0.00,,2013-11-06 02:52:00,
2013-11-05 22:12:00,43.0,36.0,30.47,SSE,163,3.0,7.0,77,0.00,,,0.00,,2013-11-06 03:12:00,
2013-11-05 22:22:00,43.0,37.0,30.47,SSE,161,4.0,7.0,78,0.00,,,0.00,,2013-11-06 03:22:00,
2013-11-05 22:44:00,43.0,37.0,30.46,SSE,160,6.0,8.0,79,0.00,,,0.00,,2013-11-06 03:44:00,
2013-11-05 22:54:00,43.0,37.0,30.46,SSE,160,6.0,8.0,79,0.00,,,0.00,,2013-11-06 03:54:00,
2013-11-05 23:14:00,42.0,36.0,30.45,SSE,164,5.0,11.0,80,0.00,,,0.00,,2013-11-06 04:14:00,
2013-11-05 23:24:00,42.0,37.0,30.44,South,176,5.0,10.0,81,0.00,,,0.00,,2013-11-06 04:24:00,
2013-11-05 23:43:00,42.0,37.0,30.44,South,174,5.0,11.0,82,0.00,,,0.00,,2013-11-06 04:43:00,
2013-11-05 23:53:00,42.0,37.0,30.44,South,169,5.0,11.0,83,0.00,,,0.00,,2013-11-06 04:53:00,